Change the Weather History Date:

Friday, February 22, 2013

  Actual Average Record
Temperature  
Mean Temperature 37 °F -  
Max Temperature 39 °F 55 °F 70 °F (1980)
Min Temperature 35 °F 34 °F 7 °F (1963)
Degree Days  
Heating Degree Days 28    
Moisture  
Dew Point 35 °F    
Average Humidity 93    
Maximum Humidity 100    
Minimum Humidity 82    
Precipitation  
Precipitation 0.42 in - - ()
Sea Level Pressure  
Sea Level Pressure 30.18 in    
Wind  
Wind Speed 3 mph (NE)    
Max Wind Speed 7 mph    
Max Gust Speed -    
Visibility 3 miles    
Events Rain    
Averages and records for this station are not official NWS values.
T = Trace of Precipitation, MM = Missing Value Source: NWS Daily Summary

Daily Weather History Graph

Daily Weather History Graph

Search for Another Location

Airport or City:

Trip Planner

Search our weather history database for the weather conditions in past years. The results will help you decide how hot, cold, wet, or windy it might be!

Date:

Astronomy

Feb. 22, 2013 Rise Set
Actual Time 7:04 AM EST 6:14 PM EST
Civil Twilight 6:38 AM EST 6:40 PM EST
Nautical Twilight 6:08 AM EST 7:09 PM EST
Astronomical Twilight 5:38 AM EST 7:39 PM EST
Moon 3:28 PM EST (2/22) 4:44 AM EST (2/22)
Length of Visible Light 12h 02m
Length of Day
11h 10m
Waxing Gibbous, 90% of the Moon is Illuminated
Feb 22
Waxing Gibbous
Feb 25
Full
Mar 4
Last Quarter
Mar 11
New
Mar 19
First Quarter

Hourly Weather History & Observations

Time (EST) Temp. Windchill Dew Point Humidity Pressure Visibility Wind Dir Wind Speed Gust Speed Precip Events Conditions
12:53 AM 37.9 °F 35.5 °F 35.1 °F 89% 30.22 in 5.0 mi NNE 3.5 mph - 0.13 in Rain Light Rain
1:53 AM 37.0 °F 34.5 °F 35.1 °F 93% 30.25 in 5.0 mi North 3.5 mph - 0.08 in Rain Rain
2:02 AM 37.4 °F - 35.6 °F 93% 30.28 in 4.0 mi Calm Calm - 0.02 in Rain Rain
2:11 AM 35.6 °F - 35.6 °F 100% 30.26 in 4.0 mi Calm Calm - 0.03 in Rain Rain
2:53 AM 35.1 °F 31.0 °F 33.1 °F 92% 30.22 in 3.0 mi NE 4.6 mph - 0.11 in Rain Rain
3:02 AM 35.6 °F 30.7 °F 33.8 °F 93% 30.26 in 2.5 mi North 5.8 mph - 0.02 in Rain Rain
3:24 AM 35.6 °F 31.7 °F 33.8 °F 93% 30.22 in 5.0 mi East 4.6 mph - 0.02 in Rain Light Rain
3:53 AM 36.0 °F 32.1 °F 34.0 °F 93% 30.21 in 8.0 mi NNE 4.6 mph - 0.02 in Rain Light Rain
4:53 AM 35.1 °F 32.2 °F 34.0 °F 96% 30.20 in 5.0 mi NE 3.5 mph - 0.01 in Rain Light Rain
5:53 AM 35.1 °F 32.2 °F 33.1 °F 92% 30.22 in 7.0 mi NNE 3.5 mph - 0.03 in Rain Light Rain
6:04 AM 35.6 °F - 33.8 °F 93% 30.23 in 7.0 mi Calm Calm - 0.00 in Rain Light Rain
6:44 AM 35.6 °F - 33.8 °F 93% 30.25 in 4.0 mi Calm Calm - 0.02 in Rain Light Rain
6:53 AM 35.1 °F - 34.0 °F 96% 30.24 in 4.0 mi Calm Calm - 0.02 in Rain Light Rain
7:53 AM 35.1 °F 30.1 °F 33.1 °F 92% 30.24 in 3.0 mi North 5.8 mph - 0.00 in   Overcast
8:53 AM 36.0 °F 31.1 °F 33.1 °F 89% 30.23 in 5.0 mi NE 5.8 mph - 0.00 in   Overcast
9:53 AM 36.0 °F 32.1 °F 34.0 °F 93% 30.23 in 4.0 mi NNE 4.6 mph - N/A   Overcast
10:53 AM 36.0 °F 32.1 °F 34.0 °F 93% 30.23 in 4.0 mi ENE 4.6 mph - N/A   Overcast
11:45 AM 37.4 °F 33.8 °F 35.6 °F 93% 30.24 in 5.0 mi ENE 4.6 mph - N/A   Overcast
11:53 AM 37.9 °F - 34.0 °F 86% 30.23 in 5.0 mi Calm Calm - N/A   Overcast
12:44 PM 37.4 °F 34.9 °F 33.8 °F 87% 30.20 in 9.0 mi ENE 3.5 mph - N/A   Overcast
12:53 PM 39.0 °F 35.7 °F 34.0 °F 82% 30.19 in 8.0 mi North 4.6 mph - N/A   Overcast
1:16 PM 37.4 °F 32.8 °F 33.8 °F 87% 30.20 in 6.0 mi NNE 5.8 mph - N/A   Overcast
1:32 PM 37.4 °F 32.8 °F 35.6 °F 93% 30.19 in 2.0 mi North 5.8 mph - 0.00 in Rain Light Rain
1:37 PM 37.4 °F 32.8 °F 35.6 °F 93% 30.18 in 1.8 mi North 5.8 mph - 0.01 in Rain Light Rain
1:53 PM 37.9 °F 33.5 °F 35.1 °F 89% 30.17 in 2.0 mi NE 5.8 mph - 0.01 in Rain Light Rain
2:17 PM 37.4 °F 34.9 °F 35.6 °F 93% 30.18 in 3.0 mi East 3.5 mph - 0.00 in   Overcast
2:33 PM 37.4 °F 33.8 °F 35.6 °F 93% 30.16 in 2.5 mi ENE 4.6 mph - 0.00 in   Overcast
2:41 PM 37.4 °F 34.9 °F 35.6 °F 93% 30.16 in 3.0 mi ENE 3.5 mph - 0.00 in   Overcast
2:53 PM 37.9 °F - 35.1 °F 89% 30.17 in 3.0 mi Calm Calm - 0.00 in   Overcast
3:25 PM 37.4 °F 33.8 °F 35.6 °F 93% 30.16 in 2.5 mi ENE 4.6 mph - 0.00 in Rain Light Rain
3:53 PM 37.9 °F - 36.0 °F 93% 30.16 in 2.0 mi Calm Calm - 0.00 in   Overcast
4:00 PM 37.4 °F 34.9 °F 35.6 °F 93% 30.16 in 1.5 mi Variable 3.5 mph - N/A   Overcast
4:16 PM 37.4 °F - 35.6 °F 93% 30.17 in 2.0 mi Calm Calm - N/A   Overcast
4:45 PM 37.4 °F 33.8 °F 35.6 °F 93% 30.15 in 1.8 mi East 4.6 mph - N/A   Overcast
4:53 PM 37.9 °F 35.5 °F 36.0 °F 93% 30.15 in 1.8 mi East 3.5 mph - N/A   Overcast
5:00 PM 37.4 °F - 35.6 °F 93% 30.15 in 2.0 mi Calm Calm - N/A   Overcast
5:24 PM 37.4 °F 34.9 °F 35.6 °F 93% 30.15 in 1.5 mi East 3.5 mph - N/A   Overcast
5:53 PM 37.0 °F 33.3 °F 35.1 °F 93% 30.13 in 1.2 mi ENE 4.6 mph - N/A   Overcast
6:08 PM 37.4 °F 33.8 °F 35.6 °F 93% 30.14 in 1.8 mi ENE 4.6 mph - N/A   Overcast
6:15 PM 37.4 °F 33.8 °F 35.6 °F 93% 30.15 in 2.5 mi NE 4.6 mph - N/A   Overcast
6:23 PM 37.4 °F 34.9 °F 33.8 °F 87% 30.15 in 3.0 mi East 3.5 mph - N/A   Overcast
6:31 PM 37.4 °F 34.9 °F 35.6 °F 93% 30.15 in 3.0 mi ENE 3.5 mph - N/A   Overcast
6:40 PM 37.4 °F 33.8 °F 35.6 °F 93% 30.14 in 2.0 mi Variable 4.6 mph - 0.00 in   Overcast
6:51 PM 37.4 °F 33.8 °F 35.6 °F 93% 30.15 in 2.0 mi ENE 4.6 mph - 0.00 in   Overcast
6:53 PM 37.0 °F 33.3 °F 35.1 °F 93% 30.14 in 2.0 mi ENE 4.6 mph - 0.00 in   Overcast
7:53 PM 36.0 °F 32.1 °F 34.0 °F 93% 30.13 in 3.0 mi ENE 4.6 mph - 0.01 in   Overcast
8:02 PM 35.6 °F 32.8 °F 35.6 °F 100% 30.14 in 2.5 mi NE 3.5 mph - N/A   Overcast
8:14 PM 35.6 °F 31.7 °F 33.8 °F 93% 30.15 in 3.0 mi ENE 4.6 mph - N/A   Overcast
8:38 PM 35.6 °F 30.7 °F 33.8 °F 93% 30.15 in 2.5 mi ENE 5.8 mph - N/A   Overcast
8:53 PM 36.0 °F 32.1 °F 34.0 °F 93% 30.14 in 2.0 mi ENE 4.6 mph - N/A   Overcast
9:14 PM 35.6 °F 32.8 °F 33.8 °F 93% 30.15 in 3.0 mi East 3.5 mph - N/A   Overcast
9:27 PM 35.6 °F 31.7 °F 33.8 °F 93% 30.15 in 2.5 mi East 4.6 mph - N/A   Overcast
9:46 PM 35.6 °F 32.8 °F 33.8 °F 93% 30.15 in 3.0 mi ENE 3.5 mph - N/A   Overcast
9:53 PM 36.0 °F - 34.0 °F 93% 30.14 in 3.0 mi Calm Calm - N/A   Overcast
10:40 PM 35.6 °F 31.7 °F 33.8 °F 93% 30.13 in 2.0 mi NNE 4.6 mph - N/A   Overcast
10:53 PM 35.1 °F 29.3 °F 34.0 °F 96% 30.10 in 1.8 mi NE 6.9 mph - N/A   Overcast
11:04 PM 35.6 °F 31.7 °F 33.8 °F 93% 30.12 in 2.5 mi NNE 4.6 mph - N/A   Overcast
11:22 PM 35.6 °F 31.7 °F 33.8 °F 93% 30.11 in 1.8 mi East 4.6 mph - N/A   Overcast
11:30 PM 35.6 °F 32.8 °F 33.8 °F 93% 30.11 in 2.0 mi Variable 3.5 mph - N/A   Overcast
11:53 PM 35.1 °F 32.2 °F 34.0 °F 96% 30.09 in 2.5 mi NE 3.5 mph - N/A   Overcast